sat.trackr.live / text

‹ back to catalog

STARLINK-5050

NORAD 53890 · 2022-119E

PAYLOAD ACTIVE UNKNOWN

§ Identity

Operator
Country
US
Launch date
2022-09-24
Launch site
AFETR
Launch vehicle
Mass (kg)
RCS (m²)

Purposes: comms

External: N2YO · Heavens-Above · Gunter

§ Orbital elements

Epoch: 2026-09-20T00:02:53.884320Z

Period
94.01 min
Inclination
53.1577°
Eccentricity
0.0001161
Mean motion
15.31705315 rev/d
Perigee alt
469.9 km
Apogee alt
471.5 km
Semi-major
6,848.9 km
B*
7.4352e-6
RAAN
126.0814°
Arg perigee
97.6451°
Mean anomaly
262.4682°
Rev number
22,165

§ Raw data

STARLINK-50501 53890U 22119E   26263.00201255 -.00000134  00000+0  74352-5 0  99982 53890  53.1577 126.0814 0001161  97.6451 262.4682 15.31705315221655

JSON: /api/v1/satellites/53890 · /tle

For live sub-satellite position, see the globe view (requires WebGL).

§ Visibility from observer

Set your observer location to see the next 7 days of passes ≥ 10°. The values pass through the URL so the page stays shareable.

No JS? Fill the form by hand. The geolocation button needs JavaScript.